Home   Weather   Leuven   Past weeks

Flag for Belgium Past Weather in Leuven, Belgium — Yesterday and Last 2 Weeks

Now
52 °F

Scattered clouds.


Feels Like: 48 °F
Forecast: 48 / 56 °F
Wind: 10 mph from West

Location: Brussels National Airport

Current Time: Oct 22, 2017 at 5:55:48 pm

Latest Report: Oct 22, 2017 at 5:20 pm


Visibility: N/A

Pressure: 29.95 "Hg

Humidity: 72%

Dew Point: 43 °F

Location of LeuvenLocation

Past Weather in Leuven — Graph

°F

Leuven Temperature Yesterday

Maximum temperature yesterday: 61 °F (at 11:20 am)
Minimum temperature yesterday: 50 °F (at 12:50 am)
Average temperature yesterday: 56 °F

High & Low Weather Summary for the Past Weeks

 TemperatureHumidityPressure
High77 °F (Oct 16, 2:20 pm)100% (Oct 8, 12:20 am)30.33 "Hg (Oct 8, 12:20 am)
Low48 °F (Oct 18, 3:50 am)50% (Oct 15, 2:50 pm)29.68 "Hg (Oct 20, 5:20 am)
Average58 °F81%30.04 "Hg
* Reported Oct 7 4:20 pm — Oct 22 4:20 pm, Leuven. Weather by CustomWeather, © 2017

Note: Actual official high and low records may vary slightly from our data, if they occured in-between our weather recording intervals... More about our weather records

Advertising

Leuven Weather History for the Previous 24 Hours

Scroll right to see more
 ConditionsComfort  
Time TempWeatherWind HumidityBarometerVisibility
4:20 pm
Sun, Oct 22
52 °FScattered clouds.12 mph72%29.92 "HgN/A
3:50 pm52 °FScattered showers. Scattered clouds.12 mph72%29.92 "HgN/A
3:20 pm54 °FScattered clouds.16 mph67%29.92 "HgN/A
2:50 pm54 °FPassing clouds.14 mph67%29.92 "HgN/A
2:20 pm54 °FPassing clouds.18 mph63%29.92 "HgN/A
1:50 pm54 °FPassing clouds.14 mph72%29.89 "HgN/A
1:20 pm52 °FPassing clouds.15 mph77%29.89 "HgN/A
12:50 pm54 °FBroken clouds.13 mph72%29.89 "HgN/A
12:20 pm52 °FScattered clouds.15 mph82%29.89 "HgN/A
11:50 am52 °FScattered clouds.14 mph82%29.89 "HgN/A
11:20 am50 °FBroken clouds.14 mph88%29.86 "HgN/A
10:50 am50 °FBroken clouds.14 mph94%29.86 "HgN/A
10:20 am50 °FBroken clouds.13 mph88%29.86 "HgN/A
9:50 am50 °FDrizzle. Fog.14 mph88%29.86 "Hg2 mi
9:20 am48 °FBroken clouds.15 mph94%29.83 "HgN/A
8:50 am48 °FPartly sunny.17 mph94%29.83 "Hg5 mi
8:20 am48 °FPartly sunny.20 mph94%29.83 "Hg5 mi
7:50 am48 °FRain showers. Passing clouds.17 mph94%29.83 "Hg2 mi
7:20 am50 °FRain showers. Passing clouds.18 mph88%29.80 "Hg2 mi
6:50 am50 °FSprinkles. Passing clouds.17 mph88%29.80 "Hg5 mi
6:20 am50 °FPassing clouds.18 mph88%29.80 "HgN/A
5:50 am50 °FPassing clouds.20 mph88%29.80 "HgN/A
5:20 am48 °FRain showers. Passing clouds.20 mph94%29.80 "Hg4 mi
4:50 am50 °FPassing clouds.22 mph88%29.80 "HgN/A
4:20 am50 °FLight rain. Passing clouds.20 mph88%29.77 "HgN/A
3:50 am48 °FRain. Passing clouds.18 mph94%29.80 "Hg4 mi
3:20 am48 °FRain. Passing clouds.22 mph94%29.80 "Hg4 mi
2:50 am52 °FLight rain. Passing clouds.23 mph72%29.80 "HgN/A
2:20 am52 °FPassing clouds.22 mph72%29.80 "HgN/A
1:50 am52 °FPassing clouds.22 mph72%29.80 "HgN/A
1:20 am52 °FClear.22 mph72%29.80 "Hg10 mi
12:50 am52 °FClear.20 mph72%29.83 "Hg10 mi
12:20 am52 °FClear.16 mph72%29.83 "Hg10 mi
11:50 pm
Sat, Oct 21
52 °FClear.18 mph77%29.83 "Hg10 mi
11:20 pm52 °FClear.17 mph72%29.83 "Hg10 mi
10:50 pm52 °FPassing clouds.17 mph72%29.83 "HgN/A
10:20 pm54 °FClear.17 mph67%29.83 "Hg10 mi
9:50 pm55 °FClear.18 mph63%29.83 "Hg10 mi
9:20 pm55 °FClear.12 mph67%29.83 "Hg10 mi
8:20 pm55 °FClear.12 mph72%29.83 "Hg10 mi
7:50 pm55 °FClear.9 mph72%29.83 "Hg10 mi
7:20 pm55 °FPassing clouds.12 mph72%29.83 "HgN/A
6:50 pm57 °FPassing clouds.14 mph67%29.80 "HgN/A
6:20 pm59 °FPassing clouds.15 mph59%29.80 "HgN/A
5:50 pm59 °FPassing clouds.15 mph63%29.83 "HgN/A
5:20 pm61 °FPassing clouds.21 mph55%29.83 "HgN/A
Weather by CustomWeather, © 2017

See weather overview